Rush City, MN

3:32 AM CST on February 28, 2017 (GMT -0600)
Rush City Regional

Weather History for KROS - September, 2014

Change the Weather History Date:

Thursday, September 4, 2014

  Actual Average (KCBG) Record (KCBG)
Temperature  
Mean Temperature 70 °F -  
Max Temperature 78 °F 74 °F 96 °F (2007)
Min Temperature 62 °F 52 °F 38 °F (1974)
Cooling Degree Days 5    
Growing Degree Days 20 (Base 50)    
Moisture  
Dew Point 65 °F    
Average Humidity 88    
Maximum Humidity 97    
Minimum Humidity 75    
Precipitation  
Precipitation 0.18 in - - ()
Sea Level Pressure  
Sea Level Pressure 29.72 in    
Wind  
Wind Speed 3 mph (SE)    
Max Wind Speed 17 mph    
Max Gust Speed 32 mph    
Visibility 10 miles    
Events Rain , Thunderstorm    
Averages and records for this station are not official NWS values.
T = Trace of Precipitation, MM = Missing Value Source: NWS Daily Summary

Daily Weather History Graph

Daily Weather History Graph

Search for Another Location

Airport or City:

Trip Planner

Search our weather history database for the weather conditions in past years. The results will help you decide how hot, cold, wet, or windy it might be!

Date:

Astronomy

Sep. 04, 2014 Rise Set
Actual Time 6:36 AM CDT 7:44 PM CDT
Civil Twilight 6:06 AM CDT 8:14 PM CDT
Nautical Twilight 5:29 AM CDT 8:50 PM CDT
Astronomical Twilight 4:50 AM CDT 9:29 PM CDT
Moon 4:31 PM CDT (9/4) 1:18 AM CDT (9/4)
Length of Visible Light 14h 08m
Length of Day
13h 07m
Waxing Gibbous, 74% of the Moon is Illuminated
Sep 4
Waxing Gibbous
Sep 8
Full
Sep 15
Last Quarter
Sep 24
New
Oct 1
First Quarter

Hourly Weather History & Observations

Time (CDT) Temp. Dew Point Humidity Pressure Visibility Wind Dir Wind Speed Gust Speed Precip Events Conditions
12:15 AM 62.1 °F 60.1 °F 93% 29.76 in 10.0 mi Calm Calm - N/A   Overcast
12:34 AM 62.1 °F 60.3 °F 94% 29.76 in 10.0 mi Calm Calm - N/A   Overcast
12:55 AM 62.6 °F 60.8 °F 94% 29.76 in 10.0 mi Calm Calm - N/A   Overcast
1:15 AM 62.6 °F 60.8 °F 94% 29.76 in 10.0 mi Calm Calm - N/A   Overcast
1:34 AM 62.6 °F 61.0 °F 94% 29.76 in 10.0 mi Calm Calm - N/A   Overcast
1:55 AM 62.8 °F 61.2 °F 94% 29.75 in 10.0 mi Calm Calm - N/A   Overcast
2:15 AM 62.8 °F 61.2 °F 94% 29.76 in 10.0 mi Calm Calm - N/A   Overcast
2:34 AM 63.1 °F 61.7 °F 95% 29.75 in 10.0 mi Calm Calm - N/A   Overcast
2:55 AM 63.0 °F 61.3 °F 94% 29.74 in 10.0 mi Calm Calm - N/A   Mostly Cloudy
3:14 AM 63.0 °F 61.5 °F 95% 29.74 in 10.0 mi East 3.5 mph - N/A   Mostly Cloudy
3:34 AM 62.6 °F 61.2 °F 95% 29.73 in 10.0 mi East 3.5 mph - N/A   Scattered Clouds
3:55 AM 62.6 °F 61.2 °F 95% 29.71 in 10.0 mi Calm Calm - N/A   Clear
4:14 AM 62.6 °F 61.2 °F 95% 29.68 in 10.0 mi East 4.6 mph - N/A   Scattered Clouds
4:34 AM 62.6 °F 61.3 °F 96% 29.65 in 10.0 mi East 4.6 mph - N/A   Scattered Clouds
4:55 AM 63.1 °F 61.9 °F 96% 29.65 in 10.0 mi Calm Calm - N/A   Scattered Clouds
5:14 AM 63.5 °F 62.1 °F 95% 29.65 in 10.0 mi Calm Calm - N/A   Scattered Clouds
5:34 AM 63.9 °F 62.8 °F 96% 29.63 in 10.0 mi ESE 4.6 mph - N/A   Clear
5:55 AM 64.2 °F 63.1 °F 96% 29.63 in 10.0 mi SE 5.8 mph - N/A   Scattered Clouds
6:14 AM 65.8 °F 64.8 °F 96% 29.63 in 10.0 mi SSE 5.8 mph - N/A   Mostly Cloudy
6:34 AM 67.1 °F 66.2 °F 97% 29.69 in 10.0 mi Calm Calm - N/A Thunderstorm Overcast
6:55 AM 67.6 °F 66.4 °F 96% 29.68 in 7.0 mi NE 4.6 mph - N/A   Overcast
7:14 AM 67.1 °F 65.8 °F 96% 29.65 in 10.0 mi East 4.6 mph - N/A Thunderstorm Overcast
7:35 AM 66.6 °F 65.3 °F 96% 29.64 in 10.0 mi NE 4.6 mph - N/A Thunderstorm Overcast
7:54 AM 66.6 °F 65.3 °F 96% 29.69 in 10.0 mi NNE 3.5 mph - N/A Thunderstorm Thunderstorm
8:14 AM 64.2 °F 62.8 °F 95% 29.82 in 7.0 mi NW 17.3 mph 32.2 mph 0.09 in Rain , Thunderstorm Light Thunderstorms and Rain
8:35 AM 63.1 °F 61.9 °F 96% 29.73 in 10.0 mi NE 13.8 mph 20.7 mph 0.17 in Thunderstorm Overcast
8:54 AM 62.6 °F 61.3 °F 96% 29.72 in 10.0 mi East 8.1 mph 20.7 mph 0.17 in   Scattered Clouds
9:14 AM 63.3 °F 61.9 °F 95% 29.72 in 10.0 mi East 8.1 mph 16.1 mph N/A   Scattered Clouds
9:35 AM 64.0 °F 62.2 °F 94% 29.70 in 10.0 mi East 6.9 mph - N/A   Mostly Cloudy
9:54 AM 65.8 °F 63.3 °F 92% 29.69 in 10.0 mi East 5.8 mph - N/A   Mostly Cloudy
10:14 AM 67.6 °F 64.0 °F 88% 29.71 in 10.0 mi East 5.8 mph - N/A   Clear
10:35 AM 67.5 °F 63.5 °F 87% 29.73 in 10.0 mi SE 5.8 mph - N/A   Mostly Cloudy
10:54 AM 68.0 °F 63.7 °F 86% 29.76 in 10.0 mi Calm Calm - 0.01 in Rain Light Rain
11:14 AM 66.7 °F 63.7 °F 90% 29.65 in 10.0 mi SE 11.5 mph 20.7 mph N/A   Scattered Clouds
11:35 AM 67.5 °F 63.5 °F 87% 29.71 in 10.0 mi SE 5.8 mph - N/A   Scattered Clouds
11:54 AM 69.1 °F 63.7 °F 83% 29.71 in 10.0 mi SSE 8.1 mph 17.3 mph N/A   Mostly Cloudy
12:15 PM 68.0 °F 64.0 °F 87% 29.68 in 10.0 mi SE 8.1 mph - N/A   Mostly Cloudy
12:35 PM 69.4 °F 64.6 °F 84% 29.67 in 10.0 mi SE 9.2 mph 17.3 mph N/A   Scattered Clouds
12:54 PM 70.7 °F 64.6 °F 81% 29.69 in 10.0 mi SE 6.9 mph - N/A   Clear
1:15 PM 73.0 °F 66.2 °F 79% 29.70 in 10.0 mi ESE 4.6 mph - N/A Rain Light Rain
1:35 PM 74.5 °F 66.2 °F 75% 29.67 in 10.0 mi SE 4.6 mph - N/A   Clear
1:54 PM 74.7 °F 66.9 °F 77% 29.68 in 10.0 mi South 4.6 mph - N/A Thunderstorm Clear
2:15 PM 75.0 °F 67.3 °F 77% 29.70 in 10.0 mi Calm Calm - N/A Thunderstorm Mostly Cloudy
2:34 PM 76.5 °F 70.0 °F 80% 29.69 in 10.0 mi SSW 4.6 mph - N/A Rain , Thunderstorm Light Thunderstorms and Rain
2:55 PM 77.0 °F 70.0 °F 79% 29.69 in 10.0 mi Calm Calm - N/A Rain , Thunderstorm Light Thunderstorms and Rain
3:14 PM 76.6 °F 70.5 °F 81% 29.67 in 10.0 mi SE 5.8 mph - N/A Rain , Thunderstorm Light Thunderstorms and Rain
3:35 PM 77.5 °F 71.4 °F 81% 29.70 in 10.0 mi SW 4.6 mph - N/A Rain Light Rain
3:54 PM 77.4 °F 71.6 °F 82% 29.71 in 10.0 mi SSW 5.8 mph - N/A Rain Light Rain
4:14 PM 78.1 °F 72.0 °F 81% 29.71 in 10.0 mi South 3.5 mph - N/A Rain Light Rain
4:35 PM 78.4 °F 72.5 °F 82% 29.69 in 10.0 mi Calm Calm - N/A Rain Light Rain
4:54 PM 78.3 °F 72.5 °F 82% 29.67 in 10.0 mi Calm Calm - N/A Rain Light Rain
5:14 PM 78.8 °F 72.7 °F 81% 29.67 in 10.0 mi Calm Calm - N/A Rain Light Rain
5:35 PM 78.8 °F 73.4 °F 83% 29.68 in 10.0 mi Calm Calm - N/A Rain Light Rain
5:54 PM 78.4 °F 73.0 °F 83% 29.71 in 10.0 mi Calm Calm - N/A Rain Light Rain
6:15 PM 78.1 °F 73.2 °F 85% 29.72 in 10.0 mi Calm Calm - N/A Rain Light Rain
6:34 PM 78.1 °F 73.4 °F 85% 29.72 in 10.0 mi Calm Calm - N/A Rain Light Rain
6:54 PM 77.0 °F 72.1 °F 85% 29.74 in 10.0 mi WNW 6.9 mph - N/A Rain Light Rain
7:15 PM 75.4 °F 69.6 °F 82% 29.74 in 10.0 mi West 4.6 mph - N/A Rain Light Rain
7:34 PM 74.1 °F 68.7 °F 83% 29.75 in 10.0 mi WNW 4.6 mph - N/A Rain Light Rain
7:54 PM 73.4 °F 68.2 °F 84% 29.76 in 10.0 mi WNW 4.6 mph - N/A Rain Light Rain
8:15 PM 71.8 °F 67.5 °F 86% 29.77 in 10.0 mi Calm Calm - N/A Rain Light Rain
8:34 PM 70.2 °F 66.7 °F 89% 29.78 in 10.0 mi Calm Calm - N/A Rain Light Rain
9:15 PM 69.3 °F 66.4 °F 91% 29.80 in 10.0 mi WSW 3.5 mph - N/A   Clear
9:34 PM 69.4 °F 66.7 °F 91% 29.81 in 10.0 mi West 3.5 mph - N/A   Scattered Clouds
9:55 PM 69.1 °F 66.2 °F 91% 29.82 in 10.0 mi West 5.8 mph - N/A   Clear
10:14 PM 68.4 °F 65.3 °F 90% 29.83 in 10.0 mi West 4.6 mph - N/A   Clear
10:34 PM 68.4 °F 64.6 °F 88% 29.83 in 10.0 mi West 4.6 mph - N/A   Scattered Clouds
10:55 PM 67.3 °F 63.0 °F 86% 29.84 in 10.0 mi WNW 5.8 mph - N/A   Scattered Clouds
11:14 PM 66.4 °F 60.1 °F 80% 29.86 in 10.0 mi WNW 4.6 mph - N/A   Scattered Clouds
11:34 PM 64.8 °F 59.0 °F 82% 29.86 in 10.0 mi West 5.8 mph - N/A   Scattered Clouds
11:55 PM 64.4 °F 57.4 °F 78% 29.87 in 10.0 mi West 4.6 mph - N/A   Scattered Clouds